Date String (YYYY-MM-DD hh:mm:ss) UTC,Instrument flags,absolute air pressure of the measurement (hPa),sample flow rate (lpm),inlet stack bypass flow (lpm),air temperature of the measurement (°C),ambient temperature measured by the external sensor (°C),aerosol sample conditioner tube jacket temperature (°C),OPC LED temperature (°C),internal box temperature (°C),relative humidity of the measurement (%),span deviation,mass concentration of particles derived from Lorenz-Mie calculation of OPC scattering (μg/m³),mass concentration of particles derived from Lorenz-Mie calculation of OPC scattering (μg/m³),mass concentration of particles derived from Lorenz-Mie calculation of OPC scattering (μg/m³)
DateTimeUTC,F1_M11,P_M11,Q1_M11,Q2_M11,T1_M11,T2_M11,T3_M11,T4_M11,T5_M11,U1_M11,ZSPAN_M11,X0_M11,X2_M11,X1_M11
2023-10-31 05:00:00,SystemResetWarning,0837.6,5.00,000.00,021.8,020.4,000.0,030.3,023.0,9.0,0000.0,0004.96,0003.47,0003.23
2023-10-31 05:01:00,SystemResetWarning,0837.6,5.00,000.00,021.7,020.4,000.0,030.3,023.0,9.0,0000.0,0004.97,0003.46,0003.21
2023-10-31 05:02:00,SystemResetWarning,0837.6,5.01,000.00,021.7,020.4,000.0,030.3,023.0,8.9,0000.0,0004.75,0003.42,0003.18
2023-10-31 05:03:00,SystemResetWarning,0837.6,5.00,000.00,021.7,020.4,000.0,030.3,023.0,8.9,0000.0,0004.66,0003.39,0003.17
2023-10-31 05:04:00,SystemResetWarning,0837.6,4.99,000.00,021.7,020.4,000.0,030.2,023.0,9.0,0000.0,0004.51,0003.36,0003.16
2023-10-31 05:05:00,SystemResetWarning,0837.6,4.99,000.00,021.7,020.3,000.0,030.2,023.0,9.0,0000.0,0004.59,0003.36,0003.14
2023-10-31 05:06:00,SystemResetWarning,0837.7,5.00,000.00,021.7,020.3,000.0,030.2,022.9,8.9,0000.0,0005.12,0003.37,0003.14
2023-10-31 05:07:00,SystemResetWarning,0837.6,5.00,000.00,021.7,020.3,000.0,030.2,022.9,8.9,0000.0,0005.24,0003.40,0003.14
2023-10-31 05:08:00,SystemResetWarning,0837.7,5.00,000.00,021.7,020.3,000.0,030.2,022.9,8.9,0000.0,0005.28,0003.41,0003.14
2023-10-31 05:09:00,SystemResetWarning,0837.6,5.00,000.00,021.6,020.3,000.0,030.2,022.9,8.9,0000.0,0005.34,0003.43,0003.15
2023-10-31 05:10:00,SystemResetWarning,0837.6,5.00,000.00,021.6,020.3,000.0,030.2,022.9,8.9,0000.0,0005.27,0003.42,0003.16
2023-10-31 05:11:00,SystemResetWarning,0837.6,5.01,000.00,021.6,020.2,000.0,030.2,022.8,8.8,0000.0,0005.23,0003.42,0003.17
2023-10-31 05:12:00,SystemResetWarning,0837.7,4.99,000.00,021.6,020.2,000.0,030.1,022.8,8.8,0000.0,0005.31,0003.42,0003.17
2023-10-31 05:13:00,SystemResetWarning,0837.7,5.00,000.00,021.6,020.2,000.0,030.1,022.8,8.8,0000.0,0005.34,0003.43,0003.18
2023-10-31 05:14:00,SystemResetWarning,0837.6,5.01,000.00,021.5,020.2,000.0,030.1,022.8,8.8,0000.0,0005.30,0003.42,0003.18
2023-10-31 05:15:00,SystemResetWarning,0837.7,5.01,000.00,021.5,020.2,000.0,030.1,022.7,8.9,0000.0,0005.49,0003.46,0003.19
2023-10-31 05:16:00,SystemResetWarning,0837.6,5.00,000.00,021.5,020.2,000.0,030.1,022.7,9.0,0000.0,0005.31,0003.44,0003.19
2023-10-31 05:17:00,SystemResetWarning,0837.6,5.00,000.00,021.5,020.2,000.0,030.1,022.7,8.9,0000.0,0004.73,0003.42,0003.19
2023-10-31 05:18:00,SystemResetWarning,0837.6,5.00,000.00,021.5,020.2,000.0,030.0,022.7,8.9,0000.0,0004.62,0003.39,0003.19
2023-10-31 05:19:00,SystemResetWarning,0837.6,4.99,000.00,021.5,020.2,000.0,030.0,022.7,8.8,0000.0,0004.65,0003.40,0003.20
2023-10-31 05:20:00,SystemResetWarning,0837.7,4.99,000.00,021.5,020.2,000.0,030.0,022.7,8.8,0000.0,0004.69,0003.41,0003.20
2023-10-31 05:21:00,SystemResetWarning,0837.6,5.00,000.00,021.4,020.2,000.0,030.0,022.7,8.9,0000.0,0004.69,0003.40,0003.19
2023-10-31 05:22:00,SystemResetWarning,0837.7,5.00,000.00,021.4,020.1,000.0,030.0,022.7,9.0,0000.0,0004.64,0003.39,0003.19
2023-10-31 05:23:00,SystemResetWarning,0837.6,5.00,000.00,021.4,020.1,000.0,030.0,022.7,9.0,0000.0,0004.48,0003.38,0003.19
2023-10-31 05:24:00,SystemResetWarning,0837.6,5.00,000.00,021.4,020.1,000.0,030.0,022.7,8.8,0000.0,0004.91,0003.37,0003.19
2023-10-31 05:25:00,SystemResetWarning,0837.6,5.01,000.00,021.4,020.1,000.0,029.9,022.7,8.9,0000.0,0005.54,0003.38,0003.19
2023-10-31 05:26:00,SystemResetWarning,0837.6,5.00,000.00,021.4,020.1,000.0,029.9,022.7,8.8,0000.0,0005.39,0003.36,0003.19
2023-10-31 05:27:00,SystemResetWarning,0837.6,5.00,000.00,021.4,020.1,000.0,029.9,022.7,9.0,0000.0,0005.47,0003.39,0003.19
2023-10-31 05:28:00,SystemResetWarning,0837.6,5.00,000.00,021.4,020.1,000.0,029.9,022.6,9.3,0000.0,0005.60,0003.41,0003.20
2023-10-31 05:29:00,SystemResetWarning,0837.6,5.00,000.00,021.4,020.1,000.0,029.9,022.6,9.4,0000.0,0005.56,0003.39,0003.19
2023-10-31 05:30:00,SystemResetWarning,0837.6,5.00,000.00,021.3,020.1,000.0,029.9,022.6,9.3,0000.0,0005.53,0003.39,0003.19
2023-10-31 05:31:00,SystemResetWarning,0837.6,5.00,000.00,021.3,020.0,000.0,029.9,022.6,9.5,0000.0,0005.53,0003.38,0003.19
2023-10-31 05:32:00,SystemResetWarning,0837.6,5.00,000.00,021.3,020.0,000.0,029.9,022.6,9.5,0000.0,0005.63,0003.40,0003.20
2023-10-31 05:33:00,SystemResetWarning,0837.6,5.00,000.00,021.3,020.0,000.0,029.8,022.6,9.6,0000.0,0005.72,0003.42,0003.21
2023-10-31 05:34:00,SystemResetWarning,0837.6,5.00,000.00,021.3,020.0,000.0,029.8,022.5,9.4,0000.0,0005.88,0003.45,0003.21
2023-10-31 05:35:00,SystemResetWarning,0837.7,5.00,000.00,021.3,020.0,000.0,029.8,022.5,9.4,0000.0,0005.54,0003.46,0003.21
2023-10-31 05:36:00,SystemResetWarning,0837.6,5.00,000.00,021.2,020.0,000.0,029.8,022.5,9.6,0000.0,0004.90,0003.45,0003.21
2023-10-31 05:37:00,SystemResetWarning,0837.7,5.00,000.00,021.2,019.9,000.0,029.8,022.5,9.6,0000.0,0004.98,0003.44,0003.20
2023-10-31 05:38:00,SystemResetWarning,0837.7,5.01,000.00,021.2,019.9,000.0,029.8,022.5,9.5,0000.0,0004.92,0003.42,0003.20
2023-10-31 05:39:00,SystemResetWarning,0837.7,5.00,000.00,021.2,019.9,000.0,029.8,022.4,9.6,0000.0,0004.73,0003.40,0003.20
2023-10-31 05:40:00,SystemResetWarning,0837.6,5.00,000.00,021.2,020.0,000.0,029.7,022.5,9.7,0000.0,0004.78,0003.42,0003.21
2023-10-31 05:41:00,SystemResetWarning,0837.6,5.00,000.00,021.2,019.9,000.0,029.7,022.5,9.3,0000.0,0006.40,0003.43,0003.21
2023-10-31 05:42:00,SystemResetWarning,0837.7,5.00,000.00,021.2,019.9,000.0,029.7,022.4,9.2,0000.0,0006.40,0003.43,0003.21
2023-10-31 05:43:00,SystemResetWarning,0837.7,5.00,000.00,021.2,019.9,000.0,029.7,022.4,9.3,0000.0,0006.39,0003.45,0003.21
2023-10-31 05:44:00,SystemResetWarning,0837.7,5.00,000.00,021.2,019.9,000.0,029.7,022.4,9.2,0000.0,0006.31,0003.43,0003.20
2023-10-31 05:45:00,SystemResetWarning,0837.6,5.00,000.00,021.1,019.9,000.0,029.7,022.4,9.2,0000.0,0006.21,0003.40,0003.20
2023-10-31 05:46:00,SystemResetWarning,0837.7,5.00,000.00,021.1,019.9,000.0,029.7,022.4,9.3,0000.0,0006.09,0003.38,0003.20
2023-10-31 05:47:00,SystemResetWarning,0837.6,5.00,000.00,021.1,019.8,000.0,029.7,022.4,9.2,0000.0,0006.01,0003.36,0003.20
2023-10-31 05:48:00,SystemResetWarning,0837.7,5.00,000.00,021.1,019.8,000.0,029.6,022.4,9.2,0000.0,0005.99,0003.37,0003.20
2023-10-31 05:49:00,SystemResetWarning,0837.6,5.01,000.00,021.1,019.8,000.0,029.6,022.3,9.2,0000.0,0006.03,0003.38,0003.19
2023-10-31 05:50:00,SystemResetWarning,0837.6,5.00,000.00,021.1,019.8,000.0,029.6,022.3,9.3,0000.0,0005.99,0003.37,0003.18
2023-10-31 05:51:00,SystemResetWarning,0837.7,5.00,000.00,021.0,019.8,000.0,029.6,022.3,9.3,0000.0,0006.04,0003.36,0003.17
2023-10-31 05:52:00,SystemResetWarning,0837.7,5.00,000.00,021.0,019.8,000.0,029.6,022.2,9.3,0000.0,0004.77,0003.37,0003.16
2023-10-31 05:53:00,SystemResetWarning,0837.7,5.00,000.00,021.0,019.8,000.0,029.6,022.2,9.3,0000.0,0004.59,0003.37,0003.16
2023-10-31 05:54:00,SystemResetWarning,0837.8,5.00,000.00,021.0,019.8,000.0,029.6,022.3,9.3,0000.0,0004.49,0003.34,0003.15
2023-10-31 05:55:00,SystemResetWarning,0837.8,5.00,000.00,021.0,019.8,000.0,029.6,022.4,9.9,0000.0,0004.48,0003.33,0003.15
2023-10-31 05:56:00,SystemResetWarning,0837.8,5.00,000.00,021.0,019.9,000.0,029.5,022.4,9.9,0000.0,0004.43,0003.33,0003.15
2023-10-31 05:57:00,SystemResetWarning,0837.8,5.00,000.00,021.1,020.0,000.0,029.5,022.5,9.6,0000.0,0004.47,0003.34,0003.16
2023-10-31 05:58:00,SystemResetWarning,0837.9,5.00,000.00,021.1,020.0,000.0,029.5,022.5,9.5,0000.0,0004.52,0003.35,0003.16
2023-10-31 05:59:00,SystemResetWarning,0837.9,5.00,000.00,021.1,020.1,000.0,029.5,022.5,9.5,0000.0,0004.49,0003.34,0003.15
